Location: Hastringsfeld
(50.9620°N, 10.4787°E)
Time: 03:40:28
(UTC+00:00)

ATLAS 3B R/B - Pass Details

Date: 25 April 2024
Orbit: 943 x 1251 km, 63.8° (Epoch: 17 May)

Event Time Altitude Azimuth Distance (km) Brightness Sun altitude
Rises 22:11:13 0° 296° (WNW) 4,073 6.4 -23.9°
Reaches altitude 10° 22:14:17 10° 307° (NW) 3,148 5.8 -24.1°
Maximum altitude 22:21:02 33° 9° (N) 1,976 4.6 -24.3°
Drops below altitude 10° 22:27:58 10° 71° (ENE) 3,234 5.3 -24.6°
Sets 22:31:09 0° 81° (E) 4,198 5.8 -24.7°
